Terminal Aerodrome Forecast
Issued by NWS Jackson, MS

Home | Current Version | Previous Version | Text Only | Print | Product List | Glossary On
Versions: 1 2 3 4 5 6 7 8 9 10 11 12
945
FTUS44 KJAN 031754
TAFMEI
TAF
KMEI 031754Z 0318/0418 06004KT P6SM -RA BKN060 BKN100
     FM040000 06011KT 5SM -RA BR BKN015 OVC060
     FM041000 08010KT 4SM RA BR OVC008=

USA.gov is the U.S. government's official web portal to all federal, state and local government web resources and services.